| time (UTC) | temp F | wind direction | speed knots | gust knots | rain 1hr in | rain 24hr in | rain mn in | humidity % | barometer mb |
| 20260510175116 | 79 | 287 | 1.7 | 3.5 | 0.00 | 0.00 | 0.00 | 52 | 1012.9 |
| 20260510174115 | 80 | 235 | 0.9 | 3.5 | 0.00 | 0.00 | 0.00 | 48 | 1012.9 |
| 20260510173115 | 79 | 294 | 0.0 | 0.0 | 0.00 | 0.00 | 0.00 | 53 | 1012.9 |
| 20260510172114 | 78 | 292 | 0.0 | 3.5 | 0.00 | 0.00 | 0.00 | 53 | 1012.8 |
| 20260510171113 | 77 | 314 | 1.7 | 3.5 | 0.00 | 0.00 | 0.00 | 53 | 1012.8 |
| 20260510170112 | 77 | 13 | 1.7 | 6.1 | 0.00 | 0.00 | 0.00 | 54 | 1012.8 |
| 20260510165112 | 77 | 47 | 0.9 | 1.7 | 0.00 | 0.00 | 0.00 | 53 | 1012.8 |
| 20260510164111 | 76 | 354 | 1.7 | 2.6 | 0.00 | 0.00 | 0.00 | 54 | 1012.8 |
| 20260510163110 | 75 | 306 | 1.7 | 3.5 | 0.00 | 0.00 | 0.00 | 53 | 1012.8 |
| 20260510162110 | 75 | 31 | 1.7 | 2.6 | 0.00 | 0.00 | 0.00 | 60 | 1013.1 |
| 20260510161109 | 74 | 38 | 0.0 | 3.5 | 0.00 | 0.00 | 0.00 | 58 | 1012.7 |
| 20260510160108 | 74 | 321 | 0.0 | 0.0 | 0.00 | 0.00 | 0.00 | 59 | 1012.7 |
| 20260510155108 | 73 | 292 | 0.0 | 0.0 | 0.00 | 0.00 | 0.00 | 62 | 1013.0 |
| 20260510154036 | 72 | 11 | 0.0 | 0.0 | 0.00 | 0.00 | 0.00 | 64 | 1013.0 |
| 20260510153035 | 71 | 9 | 0.0 | 0.0 | 0.00 | 0.00 | 0.00 | 67 | 1013.0 |
| 20260510152034 | 71 | 323 | 0.0 | 1.7 | 0.00 | 0.00 | 0.00 | 72 | 1013.0 |
| 20260510151034 | 70 | 317 | 0.0 | 1.7 | 0.00 | 0.00 | 0.00 | 74 | 1013.0 |
| 20260510145931 | 68 | 43 | 0.0 | 1.7 | 0.00 | 0.00 | 0.00 | 76 | 1012.9 |
| 20260510144931 | 65 | 315 | 0.9 | 1.7 | 0.00 | 0.00 | 0.00 | 79 | 1013.2 |
| 20260510143930 | 64 | 355 | 0.9 | 2.6 | 0.00 | 0.00 | 0.00 | 82 | 1013.1 |
| 20260510142859 | 65 | 339 | 1.7 | 1.7 | 0.00 | 0.00 | 0.00 | 88 | 1012.8 |
| 20260510141858 | 64 | 5 | 0.0 | 0.0 | 0.00 | 0.00 | 0.00 | 91 | 1012.8 |
| 20260510140857 | 63 | 11 | 0.0 | 0.0 | 0.00 | 0.00 | 0.00 | 93 | 1012.8 |
| 20260510135856 | 62 | 13 | 0.0 | 0.0 | 0.00 | 0.00 | 0.00 | 95 | 1012.8 |
| 20260510134856 | 60 | 21 | 0.0 | 0.0 | 0.00 | 0.00 | 0.00 | 95 | 1012.7 |
| 20260510133855 | 59 | 21 | 0.0 | 0.0 | 0.00 | 0.00 | 0.00 | 95 | 1012.7 |
| 20260510132855 | 58 | 289 | 0.0 | 0.0 | 0.00 | 0.00 | 0.00 | 95 | 1012.6 |
| 20260510131854 | 56 | 280 | 0.0 | 0.0 | 0.00 | 0.00 | 0.00 | 95 | 1012.6 |
| 20260510130853 | 56 | 281 | 0.0 | 0.0 | 0.00 | 0.00 | 0.00 | 95 | 1012.6 |
| 20260510125852 | 55 | 281 | 0.0 | 0.0 | 0.00 | 0.00 | 0.00 | 95 | 1012.9 |
| 20260510124821 | 55 | 281 | 0.0 | 0.0 | 0.00 | 0.00 | 0.00 | 95 | 1012.9 |
| 20260510123820 | 54 | 257 | 0.0 | 0.0 | 0.00 | 0.00 | 0.00 | 95 | 1012.5 |
| 20260510122748 | 54 | 45 | 0.0 | 0.0 | 0.00 | 0.00 | 0.00 | 95 | 1012.5 |
| 20260510121748 | 54 | 45 | 0.0 | 0.0 | 0.00 | 0.00 | 0.00 | 95 | 1012.2 |
| 20260510120747 | 54 | 342 | 0.0 | 0.0 | 0.00 | 0.00 | 0.00 | 95 | 1012.2 |
| 20260510115746 | 53 | 326 | 0.0 | 0.0 | 0.00 | 0.00 | 0.00 | 95 | 1011.8 |
| 20260510114745 | 53 | 326 | 0.0 | 0.0 | 0.00 | 0.00 | 0.00 | 95 | 1011.8 |
| 20260510113745 | 53 | 326 | 0.0 | 0.0 | 0.00 | 0.00 | 0.00 | 95 | 1012.1 |
| 20260510112744 | 53 | 306 | 0.0 | 0.0 | 0.00 | 0.00 | 0.00 | 95 | 1011.5 |
| 20260510111744 | 52 | 306 | 0.0 | 0.0 | 0.00 | 0.00 | 0.00 | 95 | 1011.8 |
| 20260510110743 | 52 | 304 | 0.0 | 0.0 | 0.00 | 0.00 | 0.00 | 95 | 1011.8 |